Regional Weather Roundup
Issued by NWS

Home | Current Version | Previous Version | Graphics & Text | Print | Product List | Glossary On
Versions: 1 2 3 4 5 6 7 8 9 10 11 12 13 14 15 16 17 18 19 20 21 22 23 24 25 26 27
000
ASUS45 KBOI 161210
RWRID

IDAHO REGIONAL WEATHER ROUNDUP
NATIONAL WEATHER SERVICE BOISE ID
500 AM MST SAT DEC 16 2017

NOTE: "FAIR" INDICATES FEW OR NO CLOUDS BELOW 12000 FEET
WITH NO SIGNIFICANT WEATHER AND/OR OBSTRUCTIONS TO VISIBILITY

IDZ012-014-161300-
SOUTHWEST IDAHO


CITY           SKY/WX    TMP DP  RH WIND       PRES   REMARKS
BOISE          CLOUDY    24  22  91 NW6       30.09S FOG     WCI  17
CALDWELL       CLOUDY    21  20  96 W8        30.13F FOG     WCI  11
MOUNTAIN HOME  MOCLDY    23  23 100 W12       30.05F WCI  12
$$

IDZ016-017-161300-
SOUTHCENTRAL IDAHO


CITY           SKY/WX    TMP DP  RH WIND       PRES   REMARKS
BURLEY         LGT SNOW  29  25  85 W8        29.95F FOG     WCI  21
JEROME         FOG       25  23  92 SW12      29.97F VSB 1/2 WCI  14
TWIN FALLS     CLOUDY    27  26  96 SW16      29.97F WCI  15
$$

IDZ019>023-161300-
SOUTHEAST IDAHO


CITY           SKY/WX    TMP DP  RH WIND       PRES   REMARKS
IDAHO FALLS    LGT SNOW  25  23  92 S8        29.92F FOG     WCI  16
POCATELLO      LGT SNOW  25  23  92 SW13      29.95F FOG     WCI  14
REXBURG        LGT SNOW  24  23  96 SW5       29.91S FOG     WCI  18
$$

IDZ006-010-011-018-031-032-161300-
CENTRAL IDAHO MOUNTAINS


CITY           SKY/WX    TMP DP  RH WIND       PRES   REMARKS
MCCALL         CLOUDY    24  21  88 N3        29.97S
HAILEY         CLOUDY    23  23 100 SE5       29.90F FOG     WCI  17
STANLEY          N/A     24  22  91 CALM      29.89F
SALMON         FLURRIES  22  20  92 CALM      29.99S
CHALLIS        CLOUDY    22  18  85 N3        29.91F
$$

IDZ002-004-006-007-026-161300-
NORTHERN IDAHO


CITY           SKY/WX    TMP DP  RH WIND       PRES   REMARKS
LEWISTON       LGT SNOW  30  29  96 SW3       30.20R FOG
LOWELL           N/A     32  31  96 CALM      30.16R
COEUR D`ALENE  CLOUDY    25  23  92 SW6       30.14S WCI  18
MULLAN PASS    CLOUDY    19  14  81 VRB3      29.92R HAZE
$$




USA.gov is the U.S. government's official web portal to all federal, state and local government web resources and services.